Munster, IL

5:57 PM CDT on August 25, 2016 (GMT -0500)
Lansing Municipal

Weather History for KIGQ - January, 2014

Change the Weather History Date:

Wednesday, January 8, 2014

  Actual Average (KMDW) Record (KMDW)
Temperature  
Mean Temperature 4 °F 25 °F  
Max Temperature 16 °F 32 °F 63 °F (1965)
Min Temperature -8 °F 18 °F -12 °F (1942)
Degree Days  
Heating Degree Days 61 40  
Month to date heating degree days 319  
Since 1 July heating degree days 2570  
Cooling Degree Days 0 0  
Month to date cooling degree days 0  
Year to date cooling degree days 0  
Moisture  
Dew Point -2 °F    
Average Humidity 77    
Maximum Humidity 87    
Minimum Humidity 56    
Precipitation  
Precipitation 0.00 in 0.07 in 1.48 in (2008)
Month to date precipitation 0.61  
Year to date precipitation 0.61  
Sea Level Pressure  
Sea Level Pressure 30.39 in    
Wind  
Wind Speed 0 mph (West)    
Max Wind Speed 6 mph    
Max Gust Speed -    
Visibility 10 miles    
Events Snow    
T = Trace of Precipitation, MM = Missing Value Source: NWS Daily Summary

Daily Weather History Graph

Daily Weather History Graph

Search for Another Location

Airport or City:

Trip Planner

Search our weather history database for the weather conditions in past years. The results will help you decide how hot, cold, wet, or windy it might be!

Date:

Astronomy

Jan. 08, 2014 Rise Set
Actual Time 7:16 AM CST 4:37 PM CST
Civil Twilight 6:45 AM CST 5:08 PM CST
Nautical Twilight 6:10 AM CST 5:43 PM CST
Astronomical Twilight 5:37 AM CST 6:16 PM CST
Moon 11:32 AM CST (1/8) 12:18 AM CST (1/8)
Length of Visible Light 10h 23m
Length of Day
9h 21m
First Quarter, 56% of the Moon is Illuminated
Jan 8
First Quarter
Jan 15
Full
Jan 23
Last Quarter
Jan 30
New
Feb 6
First Quarter

Hourly Weather History & Observations

Time (CST) Temp. Windchill Dew Point Humidity Pressure Visibility Wind Dir Wind Speed Gust Speed Precip Events Conditions
12:15 AM 1.4 °F - -2.9 °F 82% 30.28 in 10.0 mi Calm Calm - N/A   Clear
12:35 AM -1.5 °F - -4.7 °F 86% 30.28 in 10.0 mi Calm Calm - N/A   Clear
12:55 AM -1.7 °F - -5.1 °F 85% 30.29 in 10.0 mi Calm Calm - N/A   Clear
1:15 AM -3.6 °F - -7.6 °F 83% 30.29 in 10.0 mi Calm Calm - N/A   Clear
1:35 AM -2.7 °F - -6.5 °F 84% 30.30 in 10.0 mi Calm Calm - N/A   Clear
1:55 AM -4.0 °F - -8.3 °F 82% 30.30 in 10.0 mi Calm Calm - N/A   Clear
2:15 AM -4.5 °F - -8.1 °F 84% 30.31 in 10.0 mi Calm Calm - N/A   Clear
2:35 AM -3.8 °F - -8.0 °F 82% 30.30 in 10.0 mi Calm Calm - N/A   Clear
2:55 AM -5.6 °F - -9.9 °F 82% 30.30 in 5.0 mi Calm Calm - N/A Snow Light Snow
3:15 AM -7.1 °F - -11.9 °F 79% 30.30 in 10.0 mi Calm Calm - N/A   Clear
3:35 AM -7.8 °F - -12.6 °F 79% 30.30 in 10.0 mi Calm Calm - N/A   Clear
3:55 AM -6.5 °F - -10.8 °F 82% 30.30 in 10.0 mi Calm Calm - N/A   Clear
4:15 AM -5.1 °F - -9.2 °F 82% 30.30 in 10.0 mi Calm Calm - N/A   Clear
4:35 AM -5.3 °F - -10.1 °F 80% 30.30 in 10.0 mi Calm Calm - N/A   Clear
4:55 AM -7.8 °F - -12.6 °F 79% 30.31 in 10.0 mi Calm Calm - N/A   Clear
5:15 AM -6.7 °F - -11.4 °F 80% 30.31 in 10.0 mi Calm Calm - N/A   Clear
5:35 AM -6.3 °F - -11.0 °F 80% 30.31 in 10.0 mi Calm Calm - N/A   Clear
5:55 AM -5.1 °F - -9.6 °F 81% 30.32 in 10.0 mi Calm Calm - N/A   Clear
6:15 AM -6.7 °F - -11.6 °F 79% 30.32 in 10.0 mi Calm Calm - N/A   Clear
6:35 AM -8.0 °F - -12.6 °F 80% 30.33 in 10.0 mi Calm Calm - N/A   Clear
6:55 AM -6.0 °F - -10.5 °F 81% 30.34 in 10.0 mi Calm Calm - N/A   Clear
7:15 AM -7.1 °F - -12.1 °F 79% 30.35 in 10.0 mi Calm Calm - N/A   Clear
7:35 AM -7.6 °F - -12.3 °F 80% 30.36 in 10.0 mi Calm Calm - N/A   Clear
7:55 AM -5.3 °F - -9.8 °F 81% 30.36 in 10.0 mi Calm Calm - N/A   Clear
8:15 AM -4.0 °F - -8.5 °F 81% 30.37 in 10.0 mi Calm Calm - N/A   Scattered Clouds
8:35 AM -2.6 °F - -6.7 °F 82% 30.38 in 10.0 mi Calm Calm - N/A   Scattered Clouds
8:55 AM -0.2 °F - -4.2 °F 83% 30.39 in 10.0 mi Calm Calm - N/A   Clear
9:15 AM 2.5 °F - -1.1 °F 85% 30.39 in 10.0 mi Calm Calm - N/A   Clear
9:35 AM 5.5 °F - 2.1 °F 86% 30.39 in 10.0 mi Calm Calm - N/A   Clear
9:55 AM 5.4 °F - 1.8 °F 85% 30.40 in 10.0 mi Calm Calm - N/A   Clear
10:15 AM 6.6 °F - 3.2 °F 86% 30.40 in 10.0 mi Calm Calm - N/A   Clear
10:35 AM 7.7 °F - 4.5 °F 87% 30.40 in 10.0 mi Calm Calm - N/A   Clear
10:55 AM 9.1 °F - 5.9 °F 87% 30.40 in 10.0 mi Calm Calm - N/A   Clear
11:15 AM 9.7 °F - 6.4 °F 87% 30.39 in 10.0 mi Calm Calm - N/A   Clear
11:35 AM 10.2 °F - 7.0 °F 87% 30.39 in 10.0 mi Calm Calm - N/A   Clear
11:55 AM 12.0 °F - 8.4 °F 85% 30.39 in 10.0 mi Calm Calm - N/A   Clear
12:15 PM 13.6 °F - 6.6 °F 74% 30.39 in 10.0 mi Calm Calm - N/A   Scattered Clouds
12:35 PM 14.0 °F - 5.5 °F 69% 30.38 in 10.0 mi Calm Calm - N/A   Scattered Clouds
12:55 PM 14.2 °F - 5.5 °F 69% 30.38 in 10.0 mi Calm Calm - N/A   Clear
1:15 PM 15.1 °F - 5.4 °F 65% 30.38 in 10.0 mi Calm Calm - N/A   Clear
1:35 PM 15.6 °F - 4.8 °F 62% 30.38 in 10.0 mi Calm Calm - N/A   Clear
1:55 PM 15.8 °F 8.6 °F 3.4 °F 58% 30.39 in 10.0 mi WNW 4.6 mph - N/A   Clear
2:15 PM 16.0 °F 7.4 °F 3.9 °F 59% 30.39 in 10.0 mi NW 5.8 mph - N/A   Clear
2:35 PM 16.2 °F - 2.8 °F 56% 30.40 in 10.0 mi Calm Calm - N/A   Scattered Clouds
2:55 PM 16.3 °F 10.8 °F 3.0 °F 56% 30.41 in 10.0 mi NW 3.5 mph - N/A   Mostly Cloudy
3:15 PM 16.3 °F - 3.6 °F 57% 30.42 in 10.0 mi Calm Calm - N/A   Overcast
3:35 PM 16.3 °F - 3.2 °F 56% 30.42 in 10.0 mi Calm Calm - N/A   Overcast
3:55 PM 16.3 °F - 3.6 °F 57% 30.42 in 10.0 mi Calm Calm - N/A   Overcast
4:15 PM 15.8 °F 10.2 °F 4.5 °F 61% 30.43 in 10.0 mi WSW 3.5 mph - N/A   Overcast
4:35 PM 15.4 °F 8.1 °F 4.6 °F 62% 30.43 in 10.0 mi West 4.6 mph - N/A   Mostly Cloudy
4:55 PM 15.1 °F 7.7 °F 4.3 °F 62% 30.44 in 10.0 mi WSW 4.6 mph - N/A   Scattered Clouds
5:15 PM 14.5 °F 8.8 °F 4.3 °F 64% 30.44 in 10.0 mi West 3.5 mph - N/A   Clear
5:35 PM 14.4 °F 6.9 °F 4.1 °F 64% 30.44 in 10.0 mi West 4.6 mph - N/A   Clear
5:55 PM 13.1 °F 7.1 °F 4.1 °F 67% 30.45 in 10.0 mi West 3.5 mph - N/A   Scattered Clouds
6:15 PM 12.9 °F 6.9 °F 3.6 °F 66% 30.46 in 10.0 mi West 3.5 mph - N/A   Scattered Clouds
6:35 PM 12.2 °F - 2.8 °F 66% 30.46 in 10.0 mi Calm Calm - N/A   Clear
6:55 PM 9.5 °F - 2.3 °F 73% 30.47 in 10.0 mi Calm Calm - N/A   Clear
7:15 PM 5.9 °F - 0.1 °F 77% 30.47 in 10.0 mi Calm Calm - N/A   Clear
7:35 PM 4.3 °F - -1.3 °F 78% 30.48 in 10.0 mi Calm Calm - N/A   Clear
7:55 PM 3.7 °F -3.6 °F -0.9 °F 81% 30.49 in 10.0 mi West 3.5 mph - N/A   Clear
8:15 PM 8.4 °F - 2.7 °F 77% 30.49 in 10.0 mi Calm Calm - N/A   Clear
8:35 PM 8.6 °F 2.0 °F 1.4 °F 73% 30.49 in 10.0 mi WNW 3.5 mph - N/A   Clear
8:55 PM 6.3 °F - -0.4 °F 74% 30.50 in 10.0 mi Calm Calm - N/A   Clear
9:15 PM 4.8 °F - -0.6 °F 78% 30.50 in 10.0 mi Calm Calm - N/A   Clear
9:35 PM 2.7 °F - -1.3 °F 84% 30.50 in 10.0 mi Calm Calm - N/A   Clear
9:55 PM 2.7 °F - -0.4 °F 87% 30.50 in 10.0 mi Calm Calm - N/A   Clear
10:15 PM 1.4 °F - -2.2 °F 85% 30.51 in 10.0 mi Calm Calm - N/A   Clear
10:35 PM -2.4 °F - -6.0 °F 85% 30.51 in 10.0 mi Calm Calm - N/A   Clear
10:55 PM -0.0 °F - -3.6 °F 85% 30.50 in 10.0 mi Calm Calm - N/A   Clear
11:15 PM -2.0 °F - -6.2 °F 83% 30.50 in 10.0 mi Calm Calm - N/A   Clear
11:35 PM -3.3 °F - -7.2 °F 83% 30.50 in 10.0 mi Calm Calm - N/A   Clear
11:55 PM -2.2 °F - -5.8 °F 85% 30.50 in 10.0 mi Calm Calm - N/A   Clear